Vorticity
6 5 6 7 5 7 4 8 7 3 8 6 16 21 19 18 15 8 4 5 -2 -4 -1 -6 -6 -8 -14 -11 -5 -1 6 12 10 5 -3 -0 8 5 3 3 -1 -1 7 11 11 10 5 7 6 6 6 6 7 5 5 4 4 3 5 6 5 5 4 7 7 8 8 7 7 8 8 7 8 8 8 8 8 7 7 8 7 8 10 11 11 9 7 5 5 4 2 4 6 7 9 8 5
6 5 6 5 4 8 4 7 6 6 7 9 22 23 18 14 15 12 -4 -2 5 3 4 4 -1 -3 -11 -13 4 9 2 3 8 8 3 4 5 5 5 5 1 -5 -2 6 13 11 5 6 5 7 7 6 5 4 6 3 3 3 3 5 4 5 5 7 7 8 8 7 8 8 8 7 7 7 7 8 7 7 7 8 8 9 9 9 10 10 7 5 5 4 3 2 4 6 8 9 6
6 5 6 5 6 7 4 7 10 6 2 19 34 23 8 1 11 12 4 0 1 6 6 7 9 10 3 -2 8 8 7 8 4 4 5 3 4 9 5 4 4 -1 1 3 8 9 6 7 7 8 7 5 5 3 4 2 2 3 4 5 5 5 5 6 6 7 7 6 7 7 7 7 6 7 6 7 7 7 7 7 8 10 9 8 8 10 8 6 5 4 4 3 4 5 7 8 7
5 6 6 6 7 6 6 8 10 5 6 32 31 8 -19 -21 10 7 8 8 -3 -0 -5 -4 -2 3 8 7 6 5 11 10 8 7 6 5 5 8 5 6 7 4 3 1 4 5 6 6 7 8 6 4 5 4 2 3 4 4 5 5 5 5 5 6 6 7 7 7 7 7 7 6 6 6 6 7 7 7 7 7 8 9 9 8 7 8 9 8 6 4 2 4 4 4 4 7 7
5 6 6 6 7 5 8 7 8 7 13 32 16 8 -14 -18 22 7 6 12 2 6 0 4 2 5 11 11 11 7 5 -1 3 5 6 7 8 9 5 6 8 11 6 2 4 4 6 5 7 6 6 6 4 4 2 3 3 4 5 4 5 5 5 5 7 8 8 8 9 9 7 7 6 6 7 7 7 7 7 6 7 8 8 8 7 7 9 8 7 6 3 2 3 4 4 6 6
6 6 7 6 7 6 9 5 7 7 12 29 13 21 10 -10 13 1 7 11 3 13 11 13 2 5 10 6 9 8 10 2 1 4 6 4 4 7 5 7 9 11 6 5 8 5 7 6 10 8 6 6 4 4 2 3 3 4 4 4 5 4 6 6 6 8 9 10 9 9 8 7 6 6 6 7 7 7 7 7 7 8 8 8 6 6 8 9 8 7 5 4 3 4 5 6 6
6 7 8 6 8 6 8 6 9 10 11 31 13 10 12 -4 7 -2 2 5 -1 1 -1 3 -4 4 2 -9 -2 4 12 7 5 6 6 2 1 5 4 13 15 11 7 8 8 5 9 10 9 7 5 3 2 4 3 3 3 5 5 5 6 5 5 5 7 7 8 9 9 9 8 7 5 6 6 7 7 7 7 7 7 7 9 9 8 5 5 7 9 8 7 6 4 4 5 6 6
8 6 9 6 8 6 8 8 10 14 11 34 17 -10 -3 -10 0 2 -2 -1 -4 -6 -3 -2 -10 1 -7 -9 11 18 19 9 5 3 4 7 4 4 2 11 16 11 8 8 8 8 10 11 8 4 4 4 4 3 2 4 4 6 7 6 5 5 6 6 7 7 8 9 9 9 7 7 7 8 8 8 7 8 7 6 6 6 8 10 11 9 7 6 6 7 7 7 5 5 5 6 6
9 7 9 6 9 7 8 10 10 18 13 35 23 -18 -2 2 2 8 -2 -5 -7 -7 11 11 -6 0 2 9 20 22 27 11 2 3 6 9 4 8 11 17 23 14 6 8 11 13 10 6 4 3 3 4 2 1 2 4 5 7 6 7 6 5 5 6 7 8 10 8 8 8 7 7 7 9 9 9 8 8 8 6 6 5 6 7 9 11 12 10 7 6 6 6 6 6 6 6 6
10 7 9 7 10 7 9 13 10 22 22 41 36 -12 -3 9 2 8 3 3 0 -9 3 19 8 6 14 10 -3 4 22 12 4 3 5 8 6 8 14 29 34 18 10 13 10 6 6 3 -1 1 4 2 0 1 4 5 6 7 6 6 6 6 6 6 8 8 10 9 9 7 6 7 7 9 8 9 8 8 9 7 6 5 5 4 5 7 10 13 12 9 6 5 6 7 7 6 7
11 7 9 7 9 9 10 11 12 28 20 18 20 -4 0 8 4 8 7 7 8 -4 -8 10 11 -0 4 -1 -12 4 15 9 7 1 4 6 4 1 8 34 28 5 11 19 13 5 2 1 1 3 2 -1 0 4 6 7 7 7 7 7 7 7 7 6 7 8 10 9 8 7 6 7 7 9 9 9 8 9 10 9 7 5 4 3 3 4 6 9 11 12 10 6 4 5 6 7 7
10 9 10 8 9 10 9 10 17 22 2 -14 -13 -7 6 4 0 3 2 4 8 3 -2 2 3 -3 -2 -1 -2 9 13 10 10 3 6 3 6 1 -4 19 11 2 23 16 5 6 5 4 5 3 -0 1 5 8 9 10 9 9 9 9 9 8 9 9 9 8 8 8 7 8 7 7 7 8 8 8 8 9 10 10 8 6 4 3 2 3 3 5 8 11 11 9 7 4 4 6 7
9 9 8 10 10 10 11 8 16 9 -6 3 -3 -1 16 11 5 2 -2 4 10 8 24 31 13 4 -1 6 11 11 9 7 11 6 7 6 6 2 -1 20 15 12 22 8 2 5 7 6 4 2 4 8 8 8 8 9 10 10 9 9 10 10 9 9 9 8 6 7 7 7 7 8 8 8 8 7 7 8 9 11 10 8 5 3 3 2 3 4 6 8 10 10 8 7 4 3 5
8 8 7 10 10 10 13 7 19 2 -13 18 9 -2 12 17 13 9 5 4 13 -4 2 28 22 18 10 10 17 17 8 -2 7 4 6 8 2 13 29 33 19 20 20 12 15 10 7 6 3 6 6 6 5 7 8 8 9 8 8 7 9 9 8 7 8 7 5 6 5 6 7 7 8 8 9 8 8 9 9 10 10 9 6 4 3 4 5 5 6 8 10 10 9 9 7 4 5
8 10 9 11 11 12 15 13 30 1 -19 18 20 6 -5 3 8 3 9 -3 13 2 -18 10 17 21 19 8 3 9 15 9 10 4 6 6 1 15 24 26 24 29 27 15 10 5 4 1 2 5 2 5 6 10 10 9 9 7 7 6 7 6 6 7 6 6 6 6 5 5 6 7 8 7 8 8 9 10 10 10 10 10 8 7 5 5 5 5 7 8 9 11 11 9 8 7 5
8 10 8 10 12 13 16 15 30 5 -12 11 18 17 -10 -1 6 -11 11 0 -0 9 1 16 12 10 14 9 3 3 15 18 14 6 4 1 3 2 -8 14 16 -6 -5 -0 -3 -7 -2 0 2 4 5 10 9 8 6 5 6 6 7 6 6 5 5 6 6 7 7 7 5 5 7 9 9 8 8 8 10 10 10 9 9 10 9 8 7 6 5 5 7 8 10 11 12 10 9 8 6
6 9 8 11 12 12 16 11 21 13 -3 4 11 20 -0 4 6 -17 7 1 -18 -4 8 13 6 9 8 8 7 1 6 12 16 13 9 2 4 2 -9 1 -15 -37 -14 8 -1 -17 -2 15 11 9 10 9 5 4 4 6 8 7 7 7 7 7 6 6 5 6 6 7 6 7 8 10 11 11 10 8 10 9 8 8 8 8 8 7 8 7 5 5 7 9 10 11 12 11 9 9 8
6 10 9 12 16 11 17 15 15 8 -8 2 7 9 8 6 8 1 3 -1 -3 15 28 19 8 9 6 8 5 0 5 5 11 10 9 10 5 5 6 4 -12 -15 2 14 12 -1 6 13 7 8 9 6 4 5 8 8 7 7 6 6 7 6 6 7 6 6 6 7 7 8 9 9 10 10 11 10 10 9 8 8 9 10 8 7 7 8 7 6 7 9 10 10 11 11 9 9 8
6 8 8 10 17 10 20 25 11 4 -6 1 4 0 8 2 6 17 17 17 14 19 29 21 13 14 9 9 5 4 7 0 2 2 3 8 7 8 11 11 7 10 12 9 11 11 12 5 2 7 5 5 7 7 7 5 4 7 7 8 8 6 5 7 8 7 5 6 7 9 9 9 8 9 10 10 10 10 8 7 9 11 9 7 7 7 8 7 7 8 9 10 10 10 10 8 8
8 7 9 11 17 9 18 16 -7 -0 -2 -4 5 3 4 -2 -1 2 9 12 -6 -2 18 15 11 12 10 11 8 7 6 0 2 6 5 2 7 17 18 16 13 14 22 22 12 9 9 3 4 6 5 6 6 7 6 7 9 9 8 8 7 6 6 6 7 7 7 7 6 9 11 9 9 11 11 9 10 10 9 9 9 9 9 9 9 8 7 7 8 9 10 11 10 8 8 8 7
10 9 10 11 12 9 17 2 -22 -4 2 2 10 9 9 5 -1 -8 1 6 -9 0 15 13 11 8 9 10 9 9 8 7 5 7 6 2 9 19 16 18 37 37 20 13 7 5 3 3 7 6 7 9 8 11 10 10 10 9 8 6 6 6 7 7 5 5 7 7 6 8 10 10 11 11 11 9 9 10 12 11 6 5 7 9 9 8 9 9 10 9 10 12 10 6 5 8 6
8 8 8 9 7 7 13 -5 -23 -14 -7 6 8 11 29 22 8 5 9 10 7 13 9 8 15 13 11 11 16 19 20 21 16 11 7 7 11 12 9 15 44 38 3 -3 -3 -3 -0 1 5 5 7 9 10 12 9 9 9 9 8 6 8 7 8 8 7 7 7 8 7 6 7 9 9 11 10 9 10 13 16 13 8 8 8 7 7 9 9 9 9 9 10 11 10 7 6 7 6
6 8 7 7 7 6 10 1 -6 -6 -2 16 12 10 30 23 11 12 14 13 10 11 7 5 7 7 10 10 10 6 16 27 20 13 9 11 7 5 16 22 27 7 -12 4 7 0 3 3 5 7 8 9 8 9 9 10 9 9 7 7 8 8 9 8 8 8 8 10 7 3 7 8 8 12 12 10 13 13 12 11 10 9 6 6 8 10 9 7 8 9 8 10 11 10 7 7 7
4 6 6 6 7 5 6 5 2 2 6 20 19 17 22 14 7 11 14 12 7 7 8 9 6 5 6 5 -2 -10 5 20 17 14 9 10 9 8 17 17 11 3 3 15 14 12 12 10 10 8 9 10 8 8 9 8 7 8 8 7 7 8 9 8 8 9 11 14 10 4 5 7 8 12 12 11 14 9 6 8 9 8 5 6 7 5 7 8 10 10 9 11 12 12 9 8 8
3 4 5 6 8 6 3 0 -2 2 8 12 12 13 15 13 10 11 7 2 5 10 11 12 11 9 8 6 6 6 7 6 6 10 8 9 11 9 12 2 -27 -33 -5 6 1 10 11 7 9 7 7 6 7 10 10 8 9 10 9 9 10 10 10 10 10 10 13 14 11 7 9 11 10 13 12 9 11 9 7 7 7 9 9 8 7 6 9 9 8 8 10 12 13 13 11 9 9
5 5 4 7 9 8 5 1 -0 3 8 9 9 10 12 12 10 12 10 6 7 10 9 10 12 12 12 11 11 13 9 3 3 6 9 9 12 11 11 11 -11 -23 0 8 -4 -3 -0 2 7 7 6 6 7 10 11 10 11 13 13 12 11 10 9 10 12 13 13 13 10 8 11 12 12 14 12 10 13 11 8 6 4 7 9 9 9 9 10 8 6 6 7 9 11 13 10 9 8
6 7 7 8 7 6 5 3 3 7 7 5 5 7 10 10 8 11 9 4 4 7 8 10 13 11 12 14 11 11 11 10 11 11 9 6 9 14 6 3 16 21 5 -3 3 3 -0 1 4 3 5 10 10 10 12 10 10 12 14 13 11 10 10 8 10 15 16 15 12 8 9 9 10 12 10 12 14 10 8 7 5 6 6 8 10 9 8 9 8 6 4 5 8 11 10 8 8
8 8 8 11 14 11 8 6 6 10 9 6 6 6 7 7 9 14 10 6 6 8 11 10 10 8 9 13 11 11 12 13 14 12 8 9 10 10 7 5 32 50 16 0 15 10 3 3 3 3 3 7 8 10 12 9 9 9 10 10 10 10 10 9 8 11 15 15 13 11 12 11 11 12 9 10 9 6 8 8 9 9 7 6 8 10 11 12 9 7 7 7 7 9 10 8 8
11 9 8 11 15 11 9 11 9 8 6 6 8 7 8 7 7 11 7 6 8 6 6 3 1 6 8 6 9 13 15 18 17 14 10 15 18 5 9 20 28 32 17 17 16 1 3 6 4 4 5 7 6 9 9 7 8 8 9 8 8 7 7 9 8 7 10 12 14 12 14 15 14 14 11 11 9 5 5 6 9 11 9 7 7 8 10 11 10 8 8 8 6 7 10 8 8
16 16 13 12 15 15 14 11 10 12 8 7 9 6 6 5 11 17 8 3 5 3 1 -1 1 12 15 8 10 13 16 19 16 16 11 11 14 5 17 27 4 -9 0 17 9 -2 5 4 4 6 6 8 7 9 9 7 6 5 10 9 8 8 4 6 6 6 7 9 12 9 12 15 12 12 12 13 12 7 6 8 8 7 6 8 9 10 8 8 10 8 7 7 6 7 10 7 7
17 16 13 15 19 19 16 9 12 16 9 7 9 8 12 15 18 14 6 5 7 6 7 17 21 18 14 9 8 9 10 10 10 14 14 19 14 6 26 14 -22 -16 5 12 5 2 8 4 6 7 6 11 10 11 9 7 8 5 7 8 8 10 9 7 4 5 7 6 9 7 9 11 10 13 14 14 12 6 7 11 10 8 6 7 11 12 12 13 13 9 7 8 7 7 9 7 6
12 11 14 22 20 10 11 18 16 12 16 18 9 9 17 22 22 6 -6 6 11 4 5 20 25 16 9 8 7 7 7 8 14 14 14 24 15 21 41 -8 -41 0 13 6 7 2 3 4 7 7 8 13 11 11 8 6 8 6 7 7 6 8 10 13 10 9 8 5 6 6 7 8 10 16 15 13 10 7 9 10 10 10 8 7 9 11 12 15 15 10 7 7 7 7 9 9 6
13 18 23 21 15 -4 -6 14 7 -4 13 17 14 25 17 5 13 10 -0 3 3 -3 -3 -3 -8 -6 -1 3 9 7 9 18 19 10 8 13 4 26 45 -27 -62 -8 7 2 10 1 -1 5 8 9 8 9 10 10 8 7 7 7 9 8 7 4 4 9 12 12 12 10 8 6 7 7 8 11 10 9 8 9 9 6 5 7 8 9 7 8 9 13 15 11 8 9 8 8 10 11 7
11 16 13 6 20 14 -6 4 1 -3 11 11 31 46 14 -6 2 10 11 3 -3 -3 2 -2 -14 -5 -2 -8 3 3 5 17 10 -1 3 9 4 19 34 -19 -53 -16 5 5 7 6 11 11 8 8 6 6 7 7 6 7 7 7 8 9 11 8 3 4 6 9 11 11 12 11 11 9 9 8 8 10 9 7 5 3 4 5 7 10 7 6 8 12 15 12 9 9 8 9 9 8 8
-1 1 9 3 12 15 1 5 3 2 11 14 45 45 -3 -7 -3 -3 11 8 6 2 -2 3 -0 5 9 4 12 9 6 8 0 1 8 12 10 12 20 7 -8 1 9 7 5 9 13 12 9 6 6 6 6 7 7 7 8 9 9 9 12 11 7 5 3 5 7 9 10 10 11 10 10 10 9 9 8 6 4 4 5 6 6 8 8 6 7 11 13 12 10 8 7 7 7 8 9
6 4 9 -4 -13 -7 -0 17 19 16 15 -1 25 38 -2 -3 2 -4 8 8 13 15 3 9 11 6 11 18 21 13 8 4 -2 5 10 10 12 10 11 12 11 10 8 8 7 7 7 8 8 5 7 8 8 8 7 9 11 12 12 10 11 13 10 9 7 4 5 7 8 8 9 9 8 8 8 8 7 6 5 3 3 5 5 6 8 7 7 9 8 8 9 10 10 6 6 8 8
22 9 -6 -6 4 9 0 6 3 -0 5 -14 5 40 11 -5 8 3 3 5 16 25 12 7 14 17 17 20 22 15 8 4 3 5 4 4 5 5 8 8 8 8 7 7 8 9 11 9 6 5 7 9 9 8 8 9 9 10 12 10 10 12 10 9 10 9 7 7 8 9 10 11 10 8 7 8 9 7 4 4 3 5 6 6 7 7 7 7 6 8 10 10 9 6 6 8 6
25 12 -9 4 16 8 -2 5 3 -5 -1 -11 2 32 2 -18 1 0 1 10 13 15 10 4 9 15 10 7 14 14 7 3 3 3 2 3 4 4 8 7 5 5 6 9 10 10 8 6 5 5 7 9 8 7 7 8 7 7 8 8 10 12 12 10 9 9 10 9 8 8 9 10 12 11 11 10 9 8 7 7 7 5 6 6 7 7 8 7 7 10 10 8 6 7 8 9 7
21 19 -5 2 6 -5 2 13 9 6 6 -5 -1 10 -4 -7 1 -5 4 12 5 2 -1 1 1 -1 1 5 10 12 10 9 6 5 4 3 7 8 8 9 8 7 9 12 12 8 4 6 7 6 6 8 7 7 7 7 8 7 5 6 7 8 10 10 10 9 8 8 7 7 8 9 10 11 12 12 10 10 9 9 9 7 6 7 7 7 8 7 7 8 7 6 6 7 9 9 9
18 27 2 -4 5 -5 -4 9 10 12 13 7 5 -3 0 25 16 -8 1 6 3 4 -2 5 10 1 3 7 7 9 8 9 12 13 9 6 10 10 8 12 12 9 11 12 12 9 5 4 3 4 5 6 7 8 7 7 8 9 8 8 7 8 10 9 9 9 8 7 7 7 8 9 10 10 10 11 11 11 10 9 9 9 7 7 8 8 8 7 6 7 5 6 6 6 8 8 9
15 29 5 -10 9 -3 -20 1 18 16 11 10 12 -1 5 36 17 -12 7 12 1 -0 -6 6 15 2 0 5 4 6 4 5 10 14 16 13 12 11 11 13 11 9 9 7 8 9 7 5 3 4 5 6 7 7 6 7 8 9 9 10 10 10 11 12 10 9 9 7 7 6 7 8 9 10 10 9 9 9 9 9 8 9 9 9 9 8 8 6 6 6 5 5 5 5 7 7 7
12 22 6 -8 10 4 -18 -10 3 4 4 4 9 6 10 26 12 -4 18 16 -3 2 4 6 12 8 14 24 16 6 4 7 7 8 12 9 6 9 12 10 7 7 7 4 6 10 10 7 5 7 8 7 6 5 5 5 7 9 8 8 10 9 10 14 13 11 11 9 9 8 7 8 8 8 9 9 9 9 8 9 8 8 9 8 8 7 6 7 7 7 6 6 6 6 6 7 7
9 10 6 7 9 -2 -12 -10 -3 2 4 3 8 14 14 16 14 14 23 12 -3 7 12 11 19 17 15 18 12 6 6 7 8 6 4 5 6 8 10 9 4 2 3 4 6 9 11 9 7 8 10 8 5 4 3 4 8 8 5 6 8 8 8 11 13 12 12 11 9 9 8 8 9 8 9 9 9 10 10 10 10 9 10 9 9 8 7 8 8 7 8 8 6 6 5 6 6
10 7 5 12 12 2 -7 -8 -2 2 2 6 9 13 9 1 3 9 14 11 5 5 3 6 12 4 2 6 4 4 5 4 5 8 11 14 13 9 5 4 2 2 5 5 4 4 10 17 10 0 3 5 2 3 3 3 8 7 3 4 7 7 8 10 12 11 10 11 9 9 9 8 9 9 8 9 9 9 10 10 10 10 9 9 10 10 8 7 8 7 8 8 7 7 7 6 6
10 13 10 10 10 7 3 2 5 2 -0 3 0 -1 -4 -7 -0 6 10 11 8 3 -2 -0 2 -4 -2 3 1 3 8 8 7 11 15 12 9 8 7 6 9 11 8 4 5 3 8 22 19 5 3 5 0 1 5 3 6 8 2 1 6 8 7 9 12 12 10 10 10 10 11 9 8 8 8 9 8 8 9 9 10 10 9 10 10 9 10 9 9 8 9 10 10 10 9 8 8
11 8 6 11 12 9 10 11 9 5 3 4 7 10 7 7 11 10 12 13 7 2 -2 -1 5 9 8 5 9 14 10 6 7 10 9 3 3 7 10 12 11 8 3 2 7 5 5 14 25 21 1 -4 5 3 3 6 6 7 3 -0 5 7 8 9 12 13 11 10 10 11 12 12 9 8 8 8 9 8 8 8 10 11 10 11 11 10 10 10 10 10 10 11 11 11 11 11 12
9 2 -3 5 9 13 22 19 10 8 7 6 10 16 14 11 11 9 11 13 10 7 9 10 9 11 12 6 7 11 9 8 8 7 5 5 7 8 8 7 3 3 5 6 6 6 3 1 23 35 -8 -30 3 12 3 6 6 6 4 -0 3 6 7 11 12 12 12 11 10 9 11 13 12 11 10 10 11 11 10 10 10 11 11 11 11 11 11 11 12 12 11 11 12 11 11 12 13
11 6 -0 10 12 14 24 18 8 5 6 10 10 8 11 10 8 11 12 13 11 8 11 13 7 8 12 5 -0 6 13 14 9 4 4 5 5 7 8 5 4 6 6 7 6 6 10 4 14 34 -2 -44 -19 10 6 4 4 5 5 0 2 7 9 13 14 12 12 11 10 9 10 11 11 11 12 11 12 12 12 12 11 11 11 11 11 12 11 12 12 12 12 13 13 12 12 11 12
19 8 1 14 18 17 17 10 7 7 6 12 12 7 9 9 9 13 14 12 10 7 7 4 1 5 8 5 3 3 4 4 5 6 7 4 2 6 7 4 6 6 3 6 7 4 11 11 4 20 23 -13 -23 2 10 4 5 3 3 3 2 7 12 14 15 12 11 11 9 8 7 8 10 10 10 10 11 12 12 12 12 12 11 11 11 12 12 12 12 13 13 13 13 12 12 13 13
14 15 13 19 19 14 11 5 4 5 2 6 11 12 12 9 9 11 12 14 8 5 7 5 3 4 2 1 2 2 4 7 8 6 6 6 7 8 6 3 5 7 9 9 11 11 10 16 8 8 35 19 -17 -0 12 1 8 6 -0 4 4 10 16 14 14 11 10 10 9 7 6 8 10 9 10 10 9 10 10 11 12 12 12 11 11 10 10 11 11 11 11 12 12 11 11 12 13
8 14 14 16 18 13 11 10 10 12 12 12 10 10 17 20 15 8 6 11 13 13 13 11 11 9 7 7 7 9 14 12 7 4 7 8 8 10 8 8 7 7 13 9 9 14 7 17 14 4 43 37 -20 -9 17 6 12 11 -0 2 5 13 18 14 13 9 8 10 8 7 5 5 7 8 10 10 9 10 9 10 10 9 10 10 10 9 8 9 9 10 10 10 11 11 10 11 11
-1 4 5 10 19 18 14 16 16 12 11 15 14 10 15 17 14 12 9 7 11 14 12 8 9 7 6 6 4 5 6 3 1 2 6 7 7 10 10 11 10 3 6 5 5 9 4 15 12 1 42 42 -17 -9 21 12 12 10 3 5 8 16 17 12 13 8 9 11 7 6 4 3 5 6 9 9 9 10 9 10 10 9 10 9 8 9 8 8 8 8 9 8 9 10 9 10 10
-4 3 6 5 14 19 18 20 17 10 4 6 9 6 4 2 2 7 9 8 7 5 -0 -1 3 3 3 6 6 8 7 7 9 9 11 13 13 16 14 15 16 11 10 8 6 9 6 11 10 3 28 37 14 15 11 -3 5 10 7 4 7 17 13 7 10 8 9 11 6 5 3 4 5 4 8 8 8 9 9 10 10 9 10 8 9 8 7 8 7 7 8 8 9 9 9 9 8
8 5 -4 -10 7 20 18 14 10 9 9 9 11 11 10 10 9 7 6 10 9 5 3 4 7 8 11 16 17 17 15 14 16 16 16 16 12 12 12 12 15 16 17 15 11 12 9 8 10 8 12 14 16 17 2 -4 8 15 13 4 4 16 11 5 9 6 5 7 7 5 2 4 7 6 9 9 7 8 6 7 8 8 10 9 9 9 8 8 8 7 7 8 9 9 9 10 8
20 14 -0 -10 2 11 11 14 13 13 13 11 12 12 10 9 9 7 10 17 13 9 11 11 11 14 18 19 14 11 12 11 12 11 10 9 6 6 8 10 13 14 15 16 14 13 13 11 9 6 5 -1 -3 4 10 13 15 21 25 9 -2 8 7 3 6 6 4 2 5 7 4 4 7 9 11 8 7 8 6 7 7 7 10 10 10 11 10 10 10 10 8 6 7 7 8 9 9
21 18 13 3 -3 -8 -3 7 10 12 12 8 8 10 11 10 8 5 8 14 10 5 8 9 9 12 16 15 7 4 10 10 9 7 5 5 5 6 9 11 10 9 10 11 11 10 11 11 10 9 10 7 1 2 7 10 11 20 27 10 -5 2 11 8 5 7 7 3 4 7 4 5 7 8 8 5 5 6 6 8 8 7 9 9 11 11 11 13 12 13 13 10 9 7 6 7 7
15 14 11 11 7 -2 -2 1 -0 1 3 3 5 7 7 5 6 8 8 7 2 0 3 4 5 7 10 8 1 1 8 8 5 4 4 7 8 8 10 9 6 5 7 8 6 8 9 9 10 8 7 7 7 5 4 5 7 9 16 18 5 -3 5 11 9 11 9 3 4 5 5 6 5 4 5 5 6 5 5 6 6 8 9 7 9 9 9 11 12 14 15 14 14 13 11 10 9
2 5 1 1 4 5 8 13 15 13 8 5 6 6 4 4 6 8 7 6 4 4 5 4 4 4 1 -3 -6 1 7 1 -4 1 5 7 8 8 9 9 8 6 5 4 2 5 9 10 10 9 7 6 5 7 7 8 10 10 15 22 11 -5 -2 7 8 10 9 5 4 4 5 7 6 6 6 6 6 5 3 3 4 6 6 6 7 9 9 8 8 9 10 11 12 13 12 11 11
Height
5831 5831 5832 5832 5833 5834 5834 5836 5836 5837 5838 5839 5842 5846 5848 5849 5850 5850 5849 5850 5851 5847 5846 5846 5846 5842 5841 5848 5850 5851 5852 5852 5851 5849 5850 5851 5851 5850 5849 5850 5852 5853 5853 5853 5852 5851 5851 5852 5852 5853 5853 5853 5853 5853 5854 5854 5854 5854 5854 5854 5854 5853 5853 5852 5851 5851 5851 5850 5850 5850 5849 5849 5849 5849 5849 5849 5849 5849 5848 5848 5848 5847 5847 5848 5849 5849 5850 5851 5851 5852 5852 5852 5852 5853 5853 5853 5853
5828 5829 5829 5829 5830 5831 5832 5833 5834 5834 5835 5837 5842 5845 5846 5848 5848 5847 5845 5845 5844 5841 5841 5842 5843 5839 5838 5844 5847 5849 5850 5850 5850 5849 5848 5849 5849 5848 5847 5848 5849 5850 5850 5850 5849 5849 5849 5850 5850 5851 5851 5851 5851 5851 5851 5851 5851 5852 5852 5852 5852 5851 5851 5850 5850 5849 5849 5849 5848 5848 5848 5848 5847 5847 5847 5847 5847 5847 5847 5847 5847 5846 5846 5847 5848 5848 5849 5850 5850 5851 5851 5851 5852 5852 5852 5852 5852
5825 5826 5826 5827 5828 5828 5829 5830 5831 5832 5833 5836 5841 5842 5843 5845 5845 5844 5842 5840 5838 5837 5838 5839 5839 5837 5838 5841 5843 5846 5848 5848 5848 5848 5848 5848 5848 5846 5846 5846 5846 5847 5848 5848 5847 5847 5848 5848 5849 5849 5849 5849 5849 5849 5849 5849 5849 5850 5850 5850 5850 5849 5849 5848 5848 5848 5848 5848 5847 5847 5847 5846 5846 5846 5846 5846 5846 5846 5846 5846 5846 5846 5846 5846 5847 5847 5848 5848 5849 5850 5850 5851 5851 5852 5852 5852 5851
5822 5823 5823 5824 5825 5826 5827 5828 5829 5829 5831 5836 5839 5839 5838 5839 5839 5840 5840 5838 5836 5836 5835 5835 5835 5835 5838 5840 5840 5842 5846 5846 5846 5846 5847 5847 5846 5845 5844 5845 5845 5845 5845 5845 5845 5845 5846 5846 5847 5846 5846 5846 5846 5847 5847 5847 5847 5848 5848 5848 5848 5847 5847 5847 5846 5846 5846 5846 5846 5846 5845 5845 5845 5845 5844 5844 5844 5844 5844 5844 5845 5845 5845 5845 5846 5846 5847 5847 5848 5848 5849 5849 5850 5850 5851 5851 5851
5819 5820 5820 5821 5822 5823 5824 5825 5826 5827 5830 5835 5837 5835 5833 5833 5835 5837 5837 5836 5835 5834 5833 5833 5833 5834 5836 5838 5838 5839 5842 5842 5843 5843 5844 5844 5844 5843 5843 5844 5843 5843 5842 5842 5842 5843 5843 5844 5844 5844 5844 5844 5844 5844 5845 5845 5845 5846 5846 5845 5845 5845 5845 5845 5845 5844 5844 5844 5844 5844 5844 5844 5843 5843 5843 5843 5843 5843 5843 5843 5843 5843 5844 5844 5844 5845 5846 5846 5846 5847 5847 5848 5849 5849 5850 5850 5850
5817 5817 5817 5818 5819 5820 5821 5822 5823 5824 5828 5832 5833 5832 5830 5830 5832 5833 5834 5834 5833 5833 5832 5830 5829 5831 5832 5834 5836 5838 5839 5839 5840 5841 5841 5842 5842 5842 5842 5842 5840 5839 5839 5839 5839 5840 5841 5841 5842 5842 5842 5842 5842 5842 5843 5843 5843 5843 5843 5843 5843 5843 5843 5843 5843 5843 5843 5843 5843 5843 5843 5842 5842 5842 5842 5841 5841 5841 5841 5841 5841 5842 5842 5843 5844 5844 5844 5845 5845 5845 5846 5847 5848 5848 5849 5849 5849
5814 5814 5815 5815 5816 5817 5818 5819 5820 5822 5825 5829 5830 5829 5829 5829 5830 5831 5832 5832 5830 5830 5830 5826 5824 5827 5829 5831 5834 5836 5836 5837 5837 5838 5839 5840 5841 5841 5840 5838 5835 5834 5834 5835 5837 5838 5838 5839 5839 5840 5840 5840 5840 5840 5841 5841 5841 5841 5841 5841 5841 5841 5842 5841 5841 5841 5841 5841 5841 5841 5841 5841 5840 5840 5840 5840 5840 5840 5840 5840 5840 5840 5841 5842 5842 5843 5843 5843 5844 5844 5845 5846 5846 5847 5848 5848 5848
5812 5812 5812 5813 5813 5814 5815 5817 5818 5820 5823 5826 5827 5825 5827 5829 5830 5830 5829 5828 5827 5827 5826 5824 5823 5825 5825 5829 5832 5832 5833 5834 5835 5837 5837 5839 5840 5838 5835 5831 5828 5828 5831 5832 5834 5834 5835 5836 5837 5838 5838 5838 5838 5839 5839 5839 5839 5839 5839 5839 5839 5839 5840 5839 5839 5839 5839 5839 5839 5839 5839 5839 5838 5838 5838 5838 5837 5838 5838 5838 5838 5839 5839 5840 5841 5841 5842 5842 5842 5843 5843 5844 5845 5846 5846 5847 5847
5809 5809 5810 5810 5811 5812 5813 5814 5816 5818 5820 5824 5825 5823 5825 5827 5827 5826 5825 5824 5824 5824 5822 5820 5823 5825 5823 5826 5830 5830 5830 5832 5833 5835 5835 5836 5837 5834 5831 5826 5823 5825 5828 5830 5830 5831 5832 5834 5835 5835 5836 5836 5837 5837 5837 5837 5837 5837 5837 5837 5837 5837 5838 5838 5837 5837 5837 5837 5837 5837 5837 5836 5836 5836 5836 5836 5835 5836 5836 5837 5837 5837 5838 5838 5839 5840 5840 5840 5840 5841 5841 5842 5844 5845 5845 5845 5846
5806 5807 5807 5808 5809 5809 5811 5812 5814 5817 5819 5822 5825 5825 5824 5823 5821 5821 5822 5823 5822 5821 5819 5818 5821 5823 5822 5824 5828 5828 5828 5829 5830 5832 5832 5834 5834 5833 5831 5828 5827 5824 5824 5827 5827 5829 5830 5831 5833 5833 5834 5835 5835 5835 5835 5835 5835 5835 5835 5835 5835 5835 5836 5836 5835 5835 5835 5835 5835 5835 5834 5834 5834 5834 5834 5834 5834 5834 5835 5835 5835 5835 5836 5836 5837 5838 5838 5839 5839 5839 5840 5840 5842 5843 5844 5844 5844
5803 5804 5805 5806 5806 5807 5808 5810 5812 5815 5817 5819 5823 5825 5823 5820 5820 5819 5819 5820 5820 5821 5819 5817 5819 5820 5820 5822 5825 5826 5825 5826 5827 5829 5831 5833 5832 5831 5831 5830 5830 5825 5821 5823 5824 5825 5826 5828 5830 5831 5832 5832 5832 5832 5833 5833 5833 5833 5832 5833 5833 5833 5834 5834 5834 5833 5833 5833 5833 5832 5832 5832 5832 5832 5832 5832 5832 5832 5832 5833 5833 5833 5834 5834 5835 5836 5836 5837 5838 5838 5838 5838 5839 5841 5842 5842 5842
5801 5801 5802 5803 5803 5805 5806 5807 5810 5812 5814 5815 5818 5820 5820 5819 5818 5816 5815 5816 5817 5820 5819 5816 5818 5817 5816 5818 5821 5823 5823 5823 5825 5827 5828 5829 5828 5827 5826 5827 5828 5825 5820 5818 5819 5821 5823 5826 5827 5828 5829 5830 5830 5830 5830 5830 5831 5831 5830 5830 5831 5831 5831 5832 5832 5832 5831 5831 5830 5830 5830 5830 5830 5830 5830 5830 5831 5831 5831 5831 5831 5831 5832 5832 5833 5834 5834 5835 5836 5836 5836 5836 5837 5839 5840 5840 5841
5799 5799 5799 5800 5801 5802 5803 5804 5807 5809 5810 5812 5814 5816 5816 5816 5815 5812 5811 5812 5814 5818 5816 5813 5814 5813 5815 5816 5817 5819 5820 5821 5822 5823 5825 5825 5824 5823 5823 5822 5823 5823 5821 5815 5814 5818 5821 5824 5825 5826 5827 5827 5828 5828 5828 5828 5828 5829 5828 5828 5828 5829 5829 5830 5829 5829 5829 5829 5828 5828 5828 5828 5828 5828 5829 5829 5829 5829 5829 5829 5829 5829 5830 5830 5831 5832 5833 5833 5834 5834 5834 5834 5835 5836 5838 5838 5839
5796 5796 5797 5798 5799 5800 5800 5802 5805 5806 5807 5809 5811 5813 5813 5812 5811 5809 5808 5808 5812 5815 5811 5809 5812 5813 5814 5814 5814 5816 5818 5819 5820 5821 5822 5822 5822 5821 5820 5820 5820 5820 5820 5815 5813 5818 5821 5822 5823 5824 5825 5825 5825 5826 5826 5826 5826 5826 5826 5826 5826 5827 5827 5827 5827 5827 5827 5826 5826 5826 5826 5826 5826 5827 5827 5827 5827 5827 5827 5827 5827 5827 5828 5828 5829 5830 5831 5831 5832 5832 5833 5833 5833 5834 5835 5836 5837
5793 5793 5794 5795 5796 5798 5799 5802 5803 5804 5805 5807 5808 5810 5811 5808 5807 5806 5804 5805 5807 5811 5808 5806 5812 5812 5811 5811 5812 5813 5815 5817 5818 5819 5819 5819 5820 5819 5818 5819 5819 5816 5816 5816 5816 5818 5820 5820 5821 5821 5822 5823 5823 5823 5824 5824 5824 5824 5824 5824 5824 5825 5825 5825 5824 5824 5824 5824 5824 5823 5824 5824 5824 5825 5825 5825 5825 5825 5825 5825 5825 5825 5826 5826 5827 5828 5829 5830 5830 5830 5831 5831 5832 5832 5833 5834 5835
5791 5791 5791 5792 5794 5796 5798 5800 5802 5803 5803 5804 5804 5805 5806 5802 5802 5801 5799 5800 5803 5809 5807 5803 5807 5808 5807 5808 5810 5811 5812 5814 5815 5816 5815 5816 5817 5818 5817 5817 5817 5814 5813 5814 5815 5817 5818 5818 5818 5819 5820 5820 5821 5822 5822 5822 5822 5822 5822 5822 5822 5822 5822 5822 5822 5822 5821 5821 5821 5821 5822 5822 5822 5822 5823 5823 5823 5823 5823 5823 5824 5824 5824 5825 5825 5826 5827 5828 5828 5829 5829 5830 5831 5831 5832 5832 5833
5788 5788 5789 5791 5793 5794 5796 5798 5800 5802 5801 5801 5800 5800 5801 5798 5798 5798 5796 5798 5803 5807 5804 5801 5804 5805 5804 5805 5807 5808 5809 5811 5812 5813 5813 5814 5815 5815 5817 5816 5814 5811 5811 5812 5814 5816 5816 5816 5816 5817 5818 5818 5819 5820 5820 5820 5820 5820 5820 5820 5820 5820 5820 5820 5820 5819 5819 5819 5819 5819 5819 5820 5819 5820 5820 5820 5820 5821 5821 5821 5822 5822 5823 5823 5824 5824 5825 5826 5827 5827 5828 5829 5829 5830 5830 5830 5831
5786 5787 5788 5789 5791 5793 5795 5797 5798 5800 5799 5797 5797 5797 5797 5797 5796 5796 5798 5799 5803 5803 5799 5800 5802 5802 5803 5803 5805 5806 5807 5809 5809 5810 5812 5812 5812 5812 5813 5814 5813 5809 5810 5812 5813 5814 5815 5814 5814 5815 5816 5817 5817 5818 5818 5818 5818 5817 5817 5818 5818 5818 5818 5818 5818 5817 5817 5818 5818 5817 5817 5817 5817 5817 5818 5818 5818 5818 5819 5820 5820 5821 5822 5822 5822 5823 5823 5824 5825 5826 5826 5826 5827 5828 5828 5829 5830
5784 5785 5786 5788 5790 5792 5794 5796 5795 5795 5795 5794 5794 5793 5793 5795 5796 5797 5800 5798 5800 5799 5795 5798 5799 5799 5801 5801 5803 5803 5806 5807 5807 5808 5809 5810 5810 5810 5809 5809 5809 5809 5810 5811 5812 5813 5813 5813 5813 5814 5815 5815 5815 5816 5816 5816 5816 5815 5815 5816 5816 5816 5816 5816 5815 5815 5816 5816 5816 5815 5815 5815 5815 5815 5815 5816 5816 5816 5817 5818 5819 5820 5820 5821 5821 5821 5821 5821 5822 5823 5824 5824 5825 5826 5827 5827 5828
5783 5783 5785 5787 5789 5789 5791 5793 5792 5791 5790 5791 5791 5791 5790 5792 5796 5797 5798 5798 5799 5797 5793 5796 5797 5797 5798 5798 5800 5801 5804 5805 5805 5806 5807 5808 5809 5810 5808 5805 5804 5806 5808 5809 5810 5811 5811 5811 5811 5811 5812 5812 5813 5813 5814 5814 5814 5813 5813 5813 5814 5814 5814 5814 5813 5813 5814 5814 5813 5813 5813 5813 5813 5813 5813 5814 5814 5815 5816 5817 5818 5818 5819 5819 5818 5818 5819 5819 5820 5821 5822 5823 5823 5824 5825 5826 5826
5781 5782 5783 5785 5786 5786 5788 5787 5785 5784 5784 5787 5789 5791 5790 5790 5793 5793 5796 5798 5797 5795 5791 5793 5796 5797 5797 5796 5796 5798 5801 5802 5803 5805 5805 5806 5807 5808 5807 5804 5802 5803 5806 5808 5808 5809 5808 5808 5808 5809 5810 5810 5811 5811 5811 5812 5811 5811 5810 5811 5811 5811 5812 5811 5811 5811 5811 5811 5811 5810 5810 5811 5811 5811 5811 5812 5812 5814 5815 5816 5816 5816 5817 5816 5816 5817 5817 5817 5818 5819 5820 5821 5821 5822 5823 5824 5825
5779 5780 5782 5783 5783 5784 5785 5783 5781 5781 5781 5784 5789 5791 5790 5789 5790 5790 5794 5794 5791 5793 5792 5792 5795 5795 5794 5793 5793 5796 5798 5799 5801 5801 5801 5803 5805 5805 5806 5805 5803 5802 5804 5806 5806 5806 5806 5806 5806 5806 5807 5808 5808 5809 5809 5809 5809 5808 5808 5808 5808 5809 5810 5809 5808 5808 5808 5809 5808 5807 5808 5808 5808 5808 5809 5810 5811 5813 5813 5813 5813 5814 5815 5815 5815 5815 5816 5816 5816 5817 5818 5819 5820 5820 5821 5822 5822
5777 5779 5780 5780 5781 5782 5783 5783 5782 5781 5782 5786 5789 5790 5789 5789 5789 5789 5792 5789 5786 5791 5791 5791 5793 5792 5791 5791 5792 5795 5795 5796 5797 5797 5797 5799 5800 5801 5803 5804 5804 5801 5799 5800 5802 5803 5804 5804 5804 5804 5805 5806 5806 5806 5807 5807 5807 5806 5806 5805 5805 5806 5807 5806 5805 5805 5805 5806 5806 5805 5805 5806 5806 5806 5807 5808 5810 5811 5810 5810 5812 5812 5812 5813 5814 5814 5814 5814 5815 5815 5816 5817 5817 5818 5818 5819 5819
5775 5777 5778 5778 5779 5780 5780 5780 5780 5780 5782 5785 5787 5788 5788 5787 5788 5790 5789 5785 5784 5787 5789 5790 5790 5788 5789 5789 5791 5794 5795 5795 5795 5795 5795 5796 5796 5798 5800 5801 5803 5800 5794 5794 5797 5799 5801 5801 5801 5802 5803 5804 5804 5804 5804 5804 5804 5803 5803 5802 5802 5803 5804 5804 5803 5802 5802 5803 5804 5803 5803 5803 5804 5805 5806 5807 5808 5808 5807 5808 5809 5810 5811 5812 5812 5812 5813 5812 5813 5813 5814 5814 5815 5815 5815 5816 5816
5773 5774 5775 5776 5777 5777 5777 5778 5778 5779 5780 5782 5784 5785 5786 5786 5786 5788 5786 5781 5782 5784 5786 5788 5787 5786 5787 5788 5790 5793 5793 5793 5793 5794 5793 5794 5795 5795 5797 5798 5801 5797 5788 5791 5795 5797 5799 5799 5799 5800 5800 5801 5802 5802 5802 5802 5801 5800 5800 5800 5800 5800 5801 5801 5800 5800 5799 5799 5800 5800 5801 5801 5801 5803 5804 5805 5805 5805 5804 5806 5807 5807 5809 5810 5810 5811 5811 5811 5811 5812 5812 5812 5812 5813 5813 5813 5813
5771 5771 5772 5774 5775 5775 5776 5776 5776 5777 5778 5779 5781 5783 5784 5784 5784 5786 5783 5779 5779 5781 5783 5786 5786 5786 5786 5786 5788 5790 5791 5791 5791 5791 5791 5792 5792 5792 5792 5794 5797 5792 5785 5789 5793 5794 5797 5797 5798 5798 5799 5800 5800 5800 5800 5800 5799 5798 5798 5798 5797 5798 5798 5798 5798 5797 5797 5797 5798 5798 5798 5799 5800 5800 5802 5803 5803 5802 5802 5803 5804 5805 5807 5808 5809 5809 5809 5810 5810 5810 5810 5810 5810 5810 5811 5811 5811
5768 5768 5770 5771 5771 5773 5773 5774 5774 5775 5776 5777 5779 5780 5781 5781 5782 5783 5780 5777 5778 5780 5782 5784 5785 5785 5785 5785 5786 5787 5788 5789 5789 5789 5789 5789 5789 5790 5788 5789 5791 5788 5786 5789 5790 5791 5794 5795 5796 5797 5797 5798 5798 5798 5798 5798 5796 5795 5796 5795 5795 5795 5796 5796 5795 5795 5795 5796 5796 5796 5797 5797 5797 5798 5799 5800 5800 5800 5801 5802 5803 5804 5805 5806 5807 5807 5808 5808 5808 5808 5808 5808 5808 5809 5809 5809 5809
5765 5765 5766 5767 5769 5770 5770 5772 5773 5773 5774 5775 5776 5777 5778 5778 5780 5781 5777 5775 5777 5778 5781 5783 5784 5784 5784 5783 5784 5785 5786 5786 5786 5787 5787 5787 5787 5788 5787 5787 5787 5785 5787 5788 5787 5789 5791 5792 5794 5795 5796 5796 5796 5795 5795 5795 5794 5793 5793 5793 5793 5793 5793 5794 5794 5793 5792 5793 5794 5794 5794 5794 5795 5796 5797 5797 5799 5799 5800 5801 5802 5802 5803 5804 5805 5805 5806 5806 5806 5806 5806 5806 5807 5807 5807 5807 5808
5762 5763 5763 5765 5766 5767 5769 5769 5770 5771 5772 5772 5774 5775 5776 5777 5778 5777 5773 5773 5776 5778 5779 5781 5783 5783 5783 5782 5782 5783 5784 5783 5784 5784 5785 5785 5786 5786 5787 5787 5787 5785 5786 5786 5787 5788 5789 5790 5792 5793 5793 5794 5793 5793 5793 5793 5791 5791 5791 5792 5792 5791 5791 5791 5792 5792 5791 5791 5792 5791 5791 5792 5793 5794 5794 5795 5796 5797 5799 5800 5800 5801 5801 5802 5803 5804 5804 5804 5804 5804 5804 5805 5805 5805 5805 5805 5805
5760 5760 5761 5763 5764 5765 5766 5766 5767 5769 5769 5769 5771 5773 5774 5775 5776 5774 5771 5772 5774 5776 5776 5777 5780 5782 5782 5780 5780 5781 5781 5781 5781 5781 5782 5783 5784 5785 5786 5787 5787 5787 5784 5784 5786 5788 5789 5790 5790 5791 5791 5791 5791 5790 5790 5791 5790 5789 5788 5790 5790 5790 5789 5789 5789 5789 5789 5789 5789 5789 5790 5790 5790 5792 5792 5793 5793 5795 5797 5798 5799 5799 5799 5800 5801 5802 5803 5803 5802 5802 5802 5803 5804 5803 5803 5803 5803
5758 5759 5760 5761 5762 5763 5762 5764 5767 5767 5766 5766 5770 5772 5773 5774 5774 5771 5769 5770 5772 5774 5773 5774 5776 5779 5779 5779 5779 5779 5779 5779 5779 5779 5779 5780 5782 5782 5783 5785 5786 5786 5784 5783 5786 5787 5788 5789 5789 5790 5789 5789 5788 5788 5787 5788 5788 5787 5787 5787 5787 5787 5787 5788 5787 5787 5787 5787 5787 5787 5788 5788 5788 5790 5791 5791 5792 5793 5796 5797 5797 5797 5798 5798 5799 5800 5801 5801 5801 5800 5799 5800 5801 5801 5801 5801 5801
5756 5757 5759 5760 5760 5760 5760 5762 5765 5765 5763 5764 5768 5770 5771 5772 5771 5769 5768 5769 5770 5772 5772 5773 5775 5776 5777 5777 5778 5778 5778 5777 5777 5777 5777 5778 5780 5780 5781 5782 5783 5783 5782 5782 5784 5785 5786 5787 5788 5788 5787 5787 5786 5785 5784 5784 5785 5786 5786 5786 5786 5785 5784 5785 5785 5785 5785 5785 5785 5785 5785 5786 5786 5788 5790 5790 5791 5793 5794 5795 5796 5796 5796 5797 5798 5798 5799 5799 5798 5798 5797 5797 5798 5799 5799 5800 5800
5754 5756 5758 5759 5758 5757 5758 5760 5762 5763 5762 5762 5765 5769 5769 5768 5767 5767 5768 5768 5768 5769 5771 5772 5774 5774 5775 5776 5777 5777 5777 5777 5776 5776 5775 5776 5778 5779 5780 5780 5779 5780 5780 5781 5783 5784 5785 5785 5786 5786 5785 5784 5783 5783 5783 5783 5783 5784 5784 5785 5785 5785 5783 5783 5782 5782 5782 5782 5783 5783 5783 5784 5784 5786 5788 5789 5790 5791 5792 5793 5794 5794 5794 5795 5796 5796 5797 5796 5796 5796 5796 5795 5796 5797 5797 5798 5798
5752 5753 5755 5757 5757 5756 5756 5758 5760 5763 5762 5762 5764 5766 5767 5765 5765 5766 5768 5769 5767 5766 5768 5769 5770 5771 5772 5774 5775 5776 5777 5776 5776 5775 5775 5775 5777 5778 5779 5779 5778 5778 5779 5780 5782 5782 5783 5784 5784 5784 5784 5783 5782 5782 5782 5782 5782 5782 5782 5782 5783 5784 5784 5782 5781 5779 5779 5779 5780 5780 5780 5780 5781 5783 5785 5786 5787 5787 5789 5789 5790 5791 5792 5793 5793 5794 5794 5794 5793 5793 5793 5793 5794 5795 5795 5795 5796
5748 5750 5753 5755 5756 5757 5757 5758 5760 5762 5761 5761 5763 5765 5765 5764 5764 5766 5768 5769 5767 5765 5765 5766 5766 5766 5768 5771 5772 5773 5774 5775 5776 5776 5776 5776 5776 5777 5778 5779 5779 5779 5779 5780 5781 5781 5782 5782 5783 5783 5783 5783 5782 5782 5781 5781 5781 5781 5780 5780 5780 5781 5782 5782 5781 5779 5778 5778 5778 5778 5778 5778 5779 5779 5781 5783 5784 5785 5786 5787 5788 5790 5790 5791 5791 5791 5791 5791 5791 5791 5791 5791 5791 5792 5792 5792 5793
5746 5749 5752 5754 5755 5757 5758 5759 5759 5760 5760 5760 5763 5764 5764 5764 5764 5766 5767 5767 5765 5764 5764 5763 5763 5763 5764 5766 5767 5768 5770 5771 5773 5775 5775 5775 5775 5775 5777 5778 5778 5779 5779 5779 5779 5780 5780 5781 5781 5781 5781 5782 5782 5781 5780 5780 5780 5779 5779 5778 5777 5778 5779 5779 5780 5779 5778 5777 5776 5777 5777 5777 5778 5778 5779 5781 5782 5783 5784 5786 5787 5788 5789 5789 5789 5789 5789 5789 5789 5789 5789 5789 5789 5789 5790 5790 5790
5746 5748 5753 5754 5754 5757 5759 5759 5758 5759 5760 5760 5762 5763 5764 5765 5765 5766 5766 5765 5763 5763 5763 5762 5761 5762 5763 5763 5764 5765 5765 5767 5769 5771 5771 5772 5773 5773 5775 5777 5776 5777 5777 5777 5778 5778 5778 5779 5779 5780 5780 5781 5780 5779 5779 5779 5779 5778 5777 5776 5775 5775 5776 5776 5776 5776 5776 5775 5774 5774 5774 5775 5776 5777 5777 5779 5780 5781 5782 5784 5785 5786 5786 5787 5787 5787 5787 5787 5787 5787 5787 5787 5787 5788 5788 5788 5788
5745 5747 5751 5754 5754 5755 5757 5757 5756 5757 5759 5760 5760 5761 5763 5764 5765 5765 5764 5762 5760 5760 5760 5761 5761 5761 5761 5762 5763 5763 5763 5764 5766 5767 5768 5769 5770 5772 5773 5775 5774 5774 5775 5775 5776 5776 5776 5777 5777 5778 5778 5779 5778 5777 5777 5777 5777 5776 5775 5774 5774 5773 5773 5773 5773 5773 5773 5772 5772 5772 5771 5772 5773 5773 5774 5775 5776 5777 5778 5779 5781 5782 5782 5783 5784 5784 5784 5785 5784 5784 5785 5785 5786 5786 5786 5786 5786
5744 5745 5749 5753 5752 5752 5754 5755 5754 5755 5758 5759 5759 5760 5761 5761 5762 5763 5763 5760 5758 5758 5758 5759 5760 5760 5760 5760 5761 5762 5762 5763 5763 5765 5766 5766 5768 5769 5771 5772 5772 5772 5773 5774 5774 5774 5774 5774 5775 5776 5776 5777 5776 5775 5775 5775 5775 5775 5774 5773 5773 5772 5771 5771 5771 5771 5771 5770 5770 5769 5769 5769 5769 5770 5770 5771 5771 5772 5773 5774 5775 5777 5778 5779 5780 5781 5781 5782 5781 5781 5781 5782 5783 5783 5783 5784 5784
5743 5744 5747 5751 5751 5750 5751 5752 5752 5752 5754 5755 5756 5758 5760 5760 5760 5760 5761 5760 5758 5757 5757 5758 5758 5757 5757 5757 5758 5759 5760 5760 5761 5762 5763 5764 5765 5766 5767 5768 5769 5770 5771 5772 5772 5773 5773 5772 5773 5773 5774 5774 5774 5773 5773 5773 5773 5773 5772 5772 5771 5771 5770 5770 5769 5769 5769 5768 5768 5767 5767 5767 5767 5767 5767 5768 5768 5769 5770 5770 5771 5773 5774 5775 5776 5777 5778 5779 5779 5778 5778 5779 5779 5780 5781 5781 5781
5741 5743 5745 5748 5749 5748 5747 5748 5749 5749 5750 5751 5752 5754 5756 5759 5759 5758 5759 5759 5758 5757 5757 5758 5758 5756 5754 5754 5755 5756 5756 5757 5758 5759 5761 5762 5762 5763 5764 5765 5766 5767 5768 5769 5770 5770 5770 5770 5770 5771 5772 5771 5771 5770 5770 5770 5770 5770 5770 5769 5768 5768 5768 5767 5767 5767 5767 5766 5766 5766 5765 5765 5765 5765 5765 5766 5766 5767 5767 5768 5768 5769 5771 5772 5773 5775 5775 5776 5776 5776 5776 5776 5777 5777 5778 5778 5779
5739 5741 5743 5746 5748 5747 5745 5744 5745 5746 5748 5749 5749 5750 5753 5755 5757 5757 5758 5758 5757 5756 5757 5757 5755 5754 5753 5753 5753 5754 5753 5755 5756 5757 5759 5760 5760 5761 5762 5763 5763 5764 5765 5766 5766 5767 5767 5767 5768 5768 5769 5769 5768 5768 5767 5767 5768 5768 5768 5767 5766 5766 5765 5765 5765 5765 5764 5764 5764 5764 5764 5764 5764 5764 5764 5764 5764 5765 5766 5766 5767 5767 5769 5770 5771 5772 5772 5773 5773 5773 5774 5774 5774 5774 5775 5775 5776
5737 5739 5741 5743 5745 5745 5743 5742 5742 5743 5745 5746 5747 5748 5750 5751 5753 5755 5756 5756 5755 5754 5755 5754 5751 5751 5752 5752 5752 5752 5752 5753 5754 5755 5756 5758 5759 5760 5760 5761 5762 5762 5762 5763 5764 5764 5764 5764 5765 5766 5767 5767 5767 5766 5765 5765 5765 5766 5766 5765 5765 5764 5764 5763 5763 5763 5763 5762 5762 5762 5762 5762 5762 5762 5762 5763 5763 5763 5764 5765 5765 5766 5767 5768 5768 5769 5770 5770 5770 5771 5771 5772 5772 5772 5772 5773 5773
5736 5737 5739 5740 5741 5741 5740 5740 5740 5741 5743 5743 5744 5746 5747 5748 5750 5752 5752 5752 5752 5751 5751 5751 5750 5750 5749 5749 5750 5750 5751 5752 5752 5753 5755 5756 5757 5758 5758 5759 5759 5760 5760 5761 5761 5761 5761 5762 5762 5763 5764 5765 5764 5764 5763 5763 5763 5764 5764 5764 5763 5762 5762 5762 5761 5761 5761 5761 5760 5760 5760 5760 5760 5760 5761 5761 5761 5761 5762 5763 5763 5764 5765 5766 5766 5767 5768 5768 5768 5768 5769 5769 5770 5770 5770 5770 5770
5734 5735 5736 5736 5737 5738 5738 5739 5739 5740 5740 5741 5742 5743 5744 5745 5747 5749 5749 5749 5749 5748 5748 5748 5749 5748 5746 5746 5748 5749 5750 5749 5750 5752 5753 5755 5756 5756 5756 5756 5757 5757 5757 5758 5759 5759 5759 5759 5759 5760 5762 5762 5761 5761 5760 5760 5761 5762 5762 5762 5761 5760 5760 5760 5759 5759 5759 5759 5758 5758 5758 5758 5758 5758 5759 5759 5759 5760 5760 5760 5761 5761 5762 5763 5764 5765 5765 5766 5766 5766 5767 5767 5768 5768 5768 5768 5768
5731 5732 5732 5732 5733 5735 5736 5737 5737 5737 5737 5738 5739 5741 5740 5741 5743 5745 5746 5747 5747 5746 5746 5746 5747 5746 5743 5743 5745 5748 5747 5747 5748 5750 5751 5754 5755 5755 5754 5754 5754 5755 5755 5756 5757 5757 5757 5757 5757 5758 5759 5758 5757 5757 5757 5757 5758 5759 5759 5759 5759 5758 5757 5757 5757 5757 5757 5756 5756 5756 5757 5757 5757 5757 5757 5757 5757 5758 5758 5759 5759 5759 5760 5761 5761 5762 5763 5763 5764 5764 5764 5765 5765 5766 5766 5766 5766
5728 5728 5729 5729 5731 5732 5733 5734 5734 5734 5734 5735 5738 5739 5738 5738 5739 5741 5743 5744 5744 5744 5744 5744 5745 5744 5742 5742 5743 5744 5744 5744 5745 5746 5748 5751 5753 5754 5752 5752 5752 5753 5753 5754 5755 5755 5755 5755 5754 5754 5755 5755 5754 5754 5755 5755 5755 5756 5756 5757 5757 5756 5755 5755 5755 5754 5754 5754 5754 5754 5754 5755 5755 5755 5755 5755 5756 5756 5756 5757 5757 5757 5758 5758 5759 5759 5760 5760 5761 5761 5762 5762 5762 5762 5763 5763 5763
5725 5726 5727 5727 5728 5729 5729 5730 5730 5731 5732 5734 5735 5736 5735 5734 5736 5738 5740 5741 5740 5740 5742 5742 5742 5742 5742 5743 5743 5742 5742 5741 5742 5744 5745 5747 5748 5750 5750 5750 5750 5750 5751 5751 5752 5752 5752 5752 5752 5751 5751 5750 5750 5751 5752 5752 5752 5752 5753 5754 5754 5754 5753 5752 5752 5752 5752 5752 5752 5752 5752 5752 5753 5753 5753 5753 5754 5754 5754 5755 5755 5755 5755 5756 5756 5756 5757 5757 5758 5758 5759 5759 5759 5759 5759 5760 5760
5724 5724 5724 5725 5726 5726 5726 5726 5727 5728 5730 5732 5732 5732 5732 5732 5733 5735 5736 5737 5736 5737 5738 5738 5738 5740 5741 5742 5742 5742 5741 5742 5742 5742 5742 5742 5743 5745 5747 5748 5747 5748 5748 5748 5749 5749 5749 5749 5750 5749 5747 5747 5748 5749 5750 5750 5749 5749 5749 5750 5751 5751 5750 5750 5750 5750 5750 5749 5750 5750 5750 5750 5750 5751 5751 5751 5751 5752 5752 5752 5753 5753 5753 5753 5754 5754 5754 5755 5755 5755 5756 5756 5756 5757 5757 5757 5757
5721 5722 5722 5722 5723 5723 5723 5724 5725 5726 5727 5728 5729 5729 5730 5730 5731 5732 5733 5733 5733 5733 5734 5735 5736 5737 5738 5739 5740 5741 5742 5743 5742 5741 5739 5739 5739 5740 5742 5744 5744 5744 5745 5745 5745 5745 5745 5746 5746 5746 5744 5744 5745 5746 5747 5747 5747 5746 5745 5746 5748 5748 5748 5748 5747 5747 5747 5747 5747 5748 5748 5749 5749 5749 5749 5749 5749 5749 5750 5750 5750 5751 5751 5751 5751 5752 5752 5752 5752 5753 5753 5753 5754 5754 5754 5755 5755
5718 5719 5720 5720 5720 5720 5721 5722 5723 5724 5724 5726 5726 5726 5727 5728 5728 5729 5730 5729 5729 5730 5731 5733 5734 5734 5734 5735 5738 5740 5741 5740 5739 5739 5739 5738 5737 5737 5738 5740 5740 5740 5741 5741 5741 5741 5741 5742 5742 5743 5741 5740 5742 5744 5744 5743 5743 5743 5743 5743 5744 5746 5746 5746 5746 5745 5745 5745 5746 5746 5746 5747 5747 5747 5747 5747 5748 5748 5748 5748 5748 5748 5748 5749 5749 5749 5750 5750 5750 5750 5751 5751 5751 5751 5752 5752 5753
5716 5717 5718 5719 5718 5718 5719 5720 5721 5721 5722 5723 5724 5724 5725 5725 5725 5726 5727 5727 5726 5728 5729 5730 5730 5730 5730 5732 5735 5737 5737 5736 5736 5736 5737 5736 5736 5735 5735 5736 5736 5737 5737 5737 5738 5738 5738 5739 5738 5739 5740 5739 5739 5738 5737 5738 5739 5740 5740 5740 5741 5743 5743 5743 5744 5744 5743 5743 5744 5744 5744 5745 5745 5745 5746 5746 5746 5746 5746 5746 5746 5746 5746 5746 5747 5747 5747 5747 5748 5748 5748 5749 5749 5749 5750 5750 5751
5715 5715 5717 5717 5716 5716 5717 5717 5718 5718 5719 5721 5722 5722 5723 5723 5723 5724 5725 5725 5725 5726 5727 5727 5727 5728 5728 5730 5731 5732 5732 5732 5732 5733 5733 5733 5733 5733 5733 5733 5733 5733 5733 5733 5734 5734 5735 5736 5736 5737 5738 5737 5736 5733 5733 5735 5736 5736 5737 5738 5739 5740 5741 5741 5742 5742 5742 5741 5741 5742 5742 5743 5743 5744 5744 5744 5744 5744 5744 5744 5744 5744 5744 5744 5744 5745 5745 5745 5745 5745 5746 5746 5746 5747 5747 5748 5748
5713 5714 5715 5715 5715 5715 5715 5715 5716 5716 5717 5719 5720 5720 5721 5721 5721 5722 5722 5722 5722 5723 5724 5724 5725 5727 5727 5727 5728 5728 5728 5728 5729 5730 5731 5731 5730 5730 5730 5730 5730 5730 5730 5730 5730 5730 5730 5732 5733 5734 5734 5733 5733 5733 5733 5733 5732 5733 5734 5735 5737 5738 5739 5739 5740 5741 5741 5740 5739 5740 5741 5741 5741 5741 5742 5741 5741 5741 5741 5742 5742 5742 5742 5742 5743 5743 5743 5743 5743 5743 5743 5744 5744 5744 5745 5745 5746
5713 5714 5714 5713 5713 5713 5713 5714 5714 5714 5716 5717 5718 5718 5718 5718 5719 5719 5719 5719 5719 5718 5719 5720 5721 5724 5725 5725 5725 5725 5725 5725 5726 5727 5728 5728 5728 5728 5728 5728 5728 5728 5727 5727 5727 5726 5726 5726 5727 5729 5729 5728 5728 5730 5730 5729 5730 5731 5732 5733 5735 5735 5736 5737 5738 5739 5739 5739 5738 5738 5738 5739 5739 5739 5739 5739 5739 5739 5739 5739 5739 5740 5740 5740 5741 5741 5741 5741 5741 5741 5741 5742 5742 5742 5743 5743 5743
5710 5712 5712 5712 5711 5711 5711 5712 5712 5713 5713 5714 5715 5716 5716 5716 5716 5716 5716 5717 5716 5715 5714 5716 5717 5719 5722 5722 5722 5722 5723 5723 5723 5724 5725 5725 5725 5725 5725 5726 5726 5726 5726 5726 5726 5725 5724 5723 5723 5724 5724 5724 5724 5725 5727 5727 5728 5729 5729 5731 5732 5732 5733 5734 5736 5737 5737 5737 5736 5736 5736 5737 5737 5736 5737 5737 5737 5736 5737 5737 5737 5738 5738 5739 5739 5739 5739 5739 5739 5739 5739 5739 5740 5740 5740 5741 5741
5708 5708 5709 5709 5709 5709 5709 5710 5710 5710 5711 5711 5712 5712 5713 5713 5714 5714 5714 5714 5714 5712 5711 5713 5715 5716 5718 5719 5720 5720 5720 5720 5720 5721 5721 5722 5722 5722 5723 5723 5724 5724 5725 5725 5725 5725 5724 5724 5723 5723 5722 5722 5722 5722 5724 5724 5725 5727 5727 5728 5729 5729 5730 5731 5733 5734 5735 5735 5734 5734 5734 5734 5734 5734 5734 5735 5735 5735 5735 5735 5735 5736 5736 5737 5737 5737 5737 5737 5737 5736 5736 5736 5737 5737 5738 5738 5739
5705 5706 5706 5706 5706 5706 5707 5707 5707 5707 5708 5708 5709 5709 5710 5710 5711 5712 5712 5712 5711 5709 5709 5711 5712 5713 5715 5717 5717 5717 5717 5717 5717 5718 5718 5718 5718 5719 5720 5720 5721 5722 5722 5723 5723 5723 5723 5723 5723 5722 5721 5721 5720 5719 5720 5721 5722 5724 5724 5725 5726 5726 5727 5729 5730 5731 5732 5733 5732 5732 5732 5732 5732 5732 5733 5733 5733 5733 5733 5733 5733 5733 5733 5734 5734 5734 5735 5735 5735 5735 5734 5734 5734 5734 5735 5735 5736